Location: Krasnoyarskiy Pitomnik
(51.1333°N, 71.6167°E)
Time: 09:33:29
(UTC+00:00)

Cosmos 1758 Rocket - Pass Details

Date: 22 October 2021
Orbit: 603 x 635 km, 82.5° (Epoch: 06 December)

Event Time Altitude Azimuth Distance (km) Brightness Sun altitude
Rises 14:24:37 0° 348° (NNW) 2,870 7.3 -22.3°
Reaches altitude 10° 14:26:50 10° 346° (NNW) 1,962 6.4 -22.6°
Maximum altitude 14:31:09 73° 263° (W) 637 3.6 -23.3°
Enters shadow 14:32:47 37° 187° (S) 943 4.4 -23.5°
